Temp
18 18 17 17 17 17 16 17 17 17 16 16 16 16 16 16 16 16 16 16 16 16 16 16 16 17 17 17 18 18 18 18 18 18 18 18 18 18 18 18 18 18 17 17 16 15 15 15 14 14 14 14 14 14 14 14 14 14 14 14 14 14 13 13 12 11 11 12 12 12 12 12 12 12 12 12 12 11 11 11 11 11 11 11 11 11
18 18 17 16 16 16 16 16 17 17 16 16 16 16 16 16 16 16 16 15 15 15 15 16 16 16 17 17 18 18 18 18 18 18 18 18 18 18 18 18 18 18 17 17 16 15 15 15 14 14 14 14 14 14 14 14 14 14 14 14 14 14 13 13 12 11 11 11 11 12 12 12 12 12 12 12 12 11 11 11 11 11 11 11 11 11
17 17 17 16 16 15 15 15 16 16 16 16 16 16 15 15 16 16 16 15 15 15 15 15 16 16 16 17 17 18 18 18 18 18 18 17 17 17 17 17 17 17 17 16 16 15 15 14 14 14 14 14 14 14 14 14 14 14 13 13 13 13 13 13 13 12 11 11 11 11 12 12 12 12 12 12 11 11 11 11 11 10 11 11 11 11
16 16 16 16 16 15 15 15 15 15 16 16 16 15 15 15 15 16 16 16 15 15 15 15 16 16 16 16 17 17 17 18 18 17 17 17 17 17 16 16 16 16 16 16 15 15 15 14 14 14 14 14 13 13 13 14 14 14 14 13 13 13 13 13 13 12 11 11 11 11 12 12 12 12 12 12 11 11 11 11 11 11 11 10 10 10
15 15 16 16 16 15 15 15 15 15 15 15 15 15 15 15 15 16 16 16 16 16 16 16 16 16 16 16 16 17 17 17 17 17 16 16 16 16 16 15 15 15 15 15 15 15 14 14 14 13 13 13 13 13 13 13 14 14 14 13 13 13 13 13 13 12 11 11 11 11 12 12 11 12 12 12 11 11 11 11 11 11 11 10 10 10
15 15 15 15 16 16 15 15 15 15 14 14 15 15 15 15 15 15 15 15 16 16 16 16 16 16 16 16 16 16 16 16 16 16 15 15 15 15 15 15 15 15 15 14 14 14 14 14 13 13 13 13 13 13 13 13 13 14 14 13 13 13 13 13 13 12 11 11 11 11 12 12 11 12 12 12 11 11 11 11 11 10 11 10 10 10
14 14 14 15 15 15 15 15 15 14 14 14 14 14 14 14 15 15 15 15 15 16 16 16 16 16 16 15 15 15 15 15 15 14 14 14 14 14 14 14 14 14 14 14 14 14 13 13 13 13 13 13 13 13 13 13 13 13 13 13 13 12 12 12 12 11 11 11 11 11 12 12 12 12 12 12 11 11 11 11 10 10 10 10 10 10
14 14 14 14 14 14 14 14 14 14 14 14 14 14 14 14 14 14 14 15 15 15 15 15 15 15 14 14 14 14 14 13 13 13 13 13 13 13 14 14 14 14 14 14 13 13 13 13 13 13 13 13 12 12 12 12 13 13 13 13 12 12 12 12 11 11 11 11 11 11 12 12 12 12 12 12 11 11 11 11 10 10 10 10 10 10
14 14 13 14 14 14 14 14 14 14 14 14 14 14 13 13 13 13 14 14 14 14 13 13 13 13 13 13 13 13 12 12 12 12 12 12 12 13 13 13 13 13 13 13 13 13 13 13 13 12 12 12 12 12 12 12 12 13 12 12 12 12 11 11 11 11 11 11 11 11 11 12 12 12 12 12 11 11 11 11 10 10 10 10 10 10
13 13 13 13 14 14 14 14 14 14 14 14 14 14 14 14 13 13 13 13 13 13 13 13 13 12 12 12 12 12 12 12 12 12 12 12 12 12 12 12 12 13 13 13 13 13 12 12 12 12 12 12 12 12 12 12 12 12 12 12 12 11 11 11 11 11 11 11 11 11 11 12 12 12 12 12 11 11 11 11 10 10 10 10 10 9
13 13 13 13 13 13 14 14 14 14 14 14 14 14 14 14 13 13 13 13 13 13 12 12 12 12 12 12 12 12 11 11 11 11 11 11 12 12 12 11 11 12 12 12 12 12 12 12 12 12 11 11 11 11 12 12 12 12 12 12 11 11 11 11 11 11 11 11 11 11 11 12 12 12 12 12 11 11 11 11 10 10 10 10 10 9
13 13 13 13 13 13 13 13 13 13 13 13 13 13 13 13 13 13 13 13 13 12 12 12 12 12 12 12 12 11 11 11 11 11 11 11 11 11 11 11 11 11 11 11 11 11 12 12 11 11 11 11 11 11 11 12 12 12 12 11 11 11 11 11 11 11 11 11 11 11 11 12 12 12 12 12 11 11 11 10 10 10 10 10 9 9
13 13 13 13 12 12 12 12 12 12 12 12 12 13 13 13 13 13 13 13 13 12 12 12 12 12 12 12 11 11 11 11 11 11 11 10 10 10 10 10 10 10 11 11 11 11 11 11 11 11 11 11 11 11 11 11 11 11 11 11 11 11 11 11 11 10 11 11 11 11 11 11 11 11 11 11 11 11 11 10 10 10 10 9 9 9
13 13 12 12 12 11 11 11 11 11 11 11 12 12 12 12 12 12 12 12 12 12 12 12 11 11 11 11 11 11 11 11 11 11 10 10 10 10 10 10 10 10 10 10 10 11 11 11 11 11 11 11 11 11 11 11 11 11 11 11 11 11 11 10 10 10 10 11 11 11 11 11 11 11 11 11 11 11 10 10 10 9 9 9 9 9
12 12 12 11 11 11 11 11 11 11 11 11 12 12 12 12 12 11 11 11 11 12 11 11 11 11 11 11 11 11 11 10 10 10 10 10 10 10 10 10 10 10 10 10 10 11 11 11 11 11 11 11 11 11 11 11 11 11 11 11 11 11 10 10 10 10 10 10 11 11 11 11 11 11 11 11 11 10 10 10 9 9 9 9 9 9
12 12 12 11 11 11 11 11 11 11 11 11 11 11 11 11 11 11 11 11 11 11 11 11 11 10 10 10 10 10 10 10 10 10 10 10 10 10 9 10 10 10 10 10 10 10 11 11 11 11 11 11 11 11 11 11 11 11 10 10 10 10 10 10 10 10 10 10 11 11 11 11 11 11 11 11 10 10 10 9 9 9 9 9 9 9
12 12 12 12 12 12 12 11 11 11 11 11 11 11 11 11 11 11 11 11 11 10 10 10 10 10 11 11 10 10 10 10 10 9 9 9 10 10 9 9 9 9 9 9 10 10 10 10 10 11 11 11 11 11 11 11 10 10 10 10 10 10 10 10 10 10 10 10 11 11 11 11 11 11 11 10 10 10 9 9 9 9 9 9 9 9
11 11 12 12 12 12 12 12 12 11 11 11 11 11 11 11 11 11 11 11 10 10 10 10 10 10 11 12 11 10 10 10 10 9 9 9 9 9 9 9 9 9 9 9 9 10 10 10 10 11 11 11 11 11 11 10 10 10 10 10 10 10 10 10 10 10 10 11 11 11 11 11 11 10 10 10 10 9 9 9 9 9 9 9 9 9
10 11 11 11 12 12 12 12 12 12 11 11 11 11 11 11 11 11 11 10 10 10 10 10 10 10 11 12 11 10 10 10 10 9 9 9 9 9 9 9 9 9 9 9 9 10 10 10 10 11 11 11 11 10 10 10 10 10 10 10 10 10 10 10 10 10 10 11 11 11 10 10 10 10 10 10 9 9 9 9 9 9 9 9 9 9
9 9 10 11 11 11 11 12 12 12 11 11 11 11 11 11 10 10 10 10 10 10 10 10 10 10 11 11 12 11 10 10 10 9 9 9 9 9 9 9 9 9 9 9 9 9 10 10 10 10 10 10 10 10 10 10 10 10 10 10 10 10 10 10 10 10 10 10 11 10 10 10 10 10 10 9 9 9 9 9 9 9 9 9 9 9
8 8 9 9 10 11 11 11 11 11 11 11 11 11 11 10 10 10 10 10 10 10 10 10 10 10 11 11 11 11 10 10 9 9 9 9 8 8 8 9 9 9 9 9 9 9 9 9 10 10 10 10 10 10 10 10 10 10 10 10 10 10 10 10 10 10 10 10 10 10 10 10 10 9 9 9 9 9 9 9 9 9 9 9 8 8
7 8 8 8 9 10 10 11 11 11 11 11 11 11 10 10 10 10 10 10 10 10 10 10 10 10 10 10 10 10 10 10 10 9 9 8 8 8 8 8 8 8 9 9 9 9 9 9 9 10 10 10 10 10 10 10 10 10 10 10 10 10 10 10 10 10 10 10 10 10 10 10 9 9 9 9 9 9 9 9 9 9 8 8 8 8
6 7 7 7 8 8 9 9 9 10 11 11 11 11 11 11 10 10 10 10 10 10 10 10 10 10 10 10 10 10 10 10 10 10 9 8 7 7 8 8 8 8 8 8 8 9 9 9 9 9 9 9 10 10 10 10 10 10 10 10 10 10 10 10 10 10 10 10 10 9 9 9 9 9 9 9 9 9 9 9 8 8 8 8 8 8
6 6 6 7 7 7 7 8 8 8 9 10 10 11 11 11 11 10 10 10 10 10 10 10 9 9 9 9 9 9 9 9 9 9 9 9 8 8 7 7 8 7 7 8 8 8 8 9 9 9 9 9 10 10 10 10 10 10 10 10 10 10 10 10 10 10 10 10 9 9 9 9 9 9 9 9 9 9 9 8 8 8 8 8 8 8
5 5 6 6 6 6 6 7 7 7 7 8 9 9 10 10 10 10 10 10 10 9 9 9 8 8 8 8 8 9 9 9 9 9 9 9 8 7 7 7 7 7 7 7 7 8 8 8 9 9 9 9 9 10 10 10 10 10 10 10 10 10 10 10 10 10 10 10 9 9 9 9 9 9 9 9 9 9 8 8 8 8 8 8 8 7
4 4 4 5 5 5 6 6 7 7 7 7 7 8 9 9 10 10 10 9 9 9 9 8 8 8 7 7 7 8 8 8 9 9 9 8 7 6 6 7 7 6 6 6 7 7 8 8 8 8 9 9 9 9 10 10 10 10 10 10 10 10 10 10 10 10 10 10 10 10 9 9 9 9 9 9 9 9 8 8 8 8 8 7 7 7
4 4 5 5 5 5 6 6 6 7 7 7 7 7 8 9 9 9 9 9 9 8 8 8 8 8 8 7 7 7 8 8 8 8 9 8 7 5 5 6 6 6 5 6 6 6 7 7 8 8 8 9 9 9 9 9 10 10 10 10 10 9 9 9 9 9 9 9 10 10 9 9 9 9 9 9 9 8 8 8 8 8 7 7 7 7
4 4 4 5 5 5 5 5 6 6 6 7 7 7 7 8 8 8 8 8 8 8 8 8 8 8 8 7 7 7 7 7 8 8 8 8 7 5 5 5 6 5 5 5 5 6 6 7 7 7 8 8 8 9 9 9 9 10 10 10 9 9 9 9 9 9 9 9 9 9 9 9 9 9 9 8 8 8 8 8 8 7 7 7 7 7
3 3 4 4 4 5 5 5 5 5 6 6 7 7 7 7 8 8 8 8 8 8 8 8 8 8 8 8 7 7 6 7 7 8 8 8 7 5 5 5 5 5 5 4 4 5 5 6 6 7 7 8 8 8 8 9 9 9 9 9 9 9 9 9 9 9 9 9 9 9 9 9 8 8 8 8 8 8 8 8 7 7 7 7 6 6
2 3 3 3 4 4 4 5 5 5 5 6 6 7 7 7 7 8 8 8 8 8 8 8 8 8 8 8 7 6 6 6 7 7 8 7 7 5 4 4 4 4 4 4 4 4 4 5 5 6 7 7 8 8 8 8 8 8 9 9 9 9 9 9 9 9 9 8 8 8 8 8 8 8 8 8 8 8 8 7 7 7 6 6 6 6
2 2 3 3 3 3 4 4 4 5 5 6 6 6 7 7 7 7 8 8 8 8 8 8 8 8 8 8 7 7 7 6 6 7 7 7 7 5 4 4 4 4 5 5 5 5 4 4 5 5 6 7 7 7 7 8 8 8 8 8 8 8 8 9 9 8 8 8 8 8 8 8 8 7 7 7 7 7 7 7 7 6 6 6 6 5
2 2 2 3 3 3 3 4 4 4 5 5 6 6 7 7 7 7 8 8 8 8 8 8 8 8 8 8 8 8 9 7 7 7 7 7 6 5 4 4 4 4 5 6 6 6 6 4 4 4 5 6 6 7 7 7 7 7 7 7 7 7 8 8 8 8 8 8 8 8 8 7 7 7 7 7 7 7 7 7 6 6 6 6 5 5
2 2 2 2 3 3 3 3 4 4 5 5 5 6 6 7 7 7 7 8 8 8 8 8 8 8 8 8 8 9 9 9 7 7 7 7 6 5 4 4 4 4 4 5 6 7 7 5 4 4 4 5 5 6 6 7 7 7 7 7 7 7 7 7 8 7 7 7 7 7 7 7 7 7 7 7 7 7 6 6 6 6 6 6 5 5
1 1 2 2 2 3 3 3 3 4 4 5 5 6 6 6 6 7 7 7 8 8 8 8 8 8 8 8 8 9 9 9 8 7 7 7 6 5 4 4 4 4 4 4 5 6 6 5 4 4 4 4 4 5 6 6 6 7 7 7 7 6 6 7 7 7 6 6 6 6 6 6 6 6 6 6 6 6 6 6 6 6 6 6 6 5
1 1 1 2 2 2 2 3 3 4 4 4 5 5 6 6 6 7 7 7 7 8 8 8 8 8 8 8 8 8 9 8 8 7 7 7 7 6 5 4 4 4 4 4 4 4 4 4 4 4 3 3 3 4 5 5 6 6 6 6 6 6 6 6 6 6 6 5 5 5 5 5 5 5 5 5 6 6 6 5 5 5 6 6 5 5
1 1 1 1 2 2 2 3 3 3 4 4 5 5 6 6 6 6 7 7 7 7 7 8 8 8 8 8 8 8 9 8 8 7 7 7 7 6 5 5 4 4 4 4 5 5 4 4 4 4 3 3 3 3 3 4 5 5 6 6 6 6 6 6 5 5 5 5 5 5 5 4 4 4 5 5 5 5 5 5 5 5 5 5 5 5
1 1 1 1 1 2 2 2 3 3 3 4 4 5 5 6 6 6 6 7 7 7 7 7 8 8 8 8 8 8 9 8 8 7 7 7 7 6 6 5 4 4 5 5 5 5 5 4 3 3 4 4 4 3 3 3 4 4 5 5 5 5 5 5 5 5 5 5 5 4 4 4 4 4 4 4 4 4 4 4 4 4 4 4 4 5
1 1 1 1 1 2 2 2 2 3 3 4 4 5 5 6 6 6 6 6 6 7 7 7 7 7 8 8 8 8 8 8 8 7 7 7 7 6 6 5 4 4 5 5 5 5 5 4 4 3 4 4 4 3 2 2 3 3 4 4 5 5 5 5 5 5 5 4 4 4 4 4 4 4 4 4 4 4 3 3 3 3 3 4 4 4
1 1 1 1 1 1 2 2 2 3 3 4 4 4 5 5 6 6 6 6 6 6 7 7 7 7 7 8 8 8 8 8 8 8 7 7 7 6 6 5 5 4 5 5 5 5 5 4 4 4 4 4 4 3 2 2 2 3 3 4 4 4 4 4 4 4 4 4 4 4 4 4 4 4 3 3 3 3 3 3 3 3 3 3 3 4
1 1 1 1 1 2 2 2 2 3 3 3 4 4 5 5 6 6 6 6 6 6 6 7 7 7 7 7 7 8 8 8 8 8 7 7 7 6 6 6 5 4 4 5 5 5 5 5 5 5 5 4 4 3 2 2 2 2 3 3 3 3 4 4 4 4 4 4 4 4 4 4 3 3 3 3 3 3 3 3 2 2 2 3 3 3
1 1 1 2 2 2 2 2 2 3 3 3 3 4 4 5 5 6 6 6 6 6 6 7 7 7 7 7 7 7 8 8 8 7 7 7 7 6 6 6 5 5 4 4 4 5 5 5 5 5 5 4 4 3 2 2 2 2 2 3 3 3 3 3 3 3 4 4 4 3 3 3 3 3 3 3 3 3 3 2 2 2 2 3 3 3
0 1 1 1 2 2 2 2 2 2 3 3 3 3 4 4 5 6 6 6 6 6 6 6 7 7 7 7 7 7 7 7 7 7 7 7 7 6 6 6 5 5 4 4 4 4 4 5 5 5 4 4 4 3 2 2 2 2 2 2 2 2 2 3 3 3 3 3 3 3 3 3 3 3 3 2 2 2 2 2 2 2 2 2 2 3
-0 -0 0 0 1 1 1 1 2 2 2 2 3 3 3 4 5 5 6 6 6 6 6 6 6 6 6 6 6 6 7 7 7 7 7 7 7 6 6 6 5 5 5 4 4 4 4 4 4 4 4 4 3 3 2 2 1 2 2 2 2 2 2 2 2 2 2 2 3 3 3 3 2 2 2 2 2 2 2 2 2 2 2 2 2 2
-1 -1 -1 -1 -0 0 1 1 1 1 2 2 2 3 3 4 4 5 6 6 6 6 6 6 6 6 6 6 6 6 6 6 6 6 6 6 6 6 6 6 5 5 5 4 4 4 4 4 4 4 4 4 3 3 2 2 1 1 2 2 2 2 2 2 2 2 2 2 2 2 2 2 2 2 2 2 2 2 2 2 2 2 2 2 2 2
-1 -1 -1 -1 -0 0 1 1 1 2 2 2 2 3 3 4 4 5 5 5 6 6 6 6 6 6 6 6 5 5 5 5 5 5 6 6 6 6 6 5 5 5 5 5 4 4 4 4 4 4 3 3 3 2 2 2 1 1 1 1 2 2 2 2 2 1 2 2 2 2 2 2 2 2 2 2 2 1 2 2 2 2 2 2 2 2
-1 -1 -1 -1 -1 -0 0 1 1 2 2 2 3 3 3 3 4 4 5 5 5 5 6 5 5 5 6 6 5 5 5 4 4 4 4 5 5 5 5 5 5 5 4 4 4 4 4 4 4 3 3 3 2 2 2 2 2 1 1 1 1 1 1 1 1 1 1 2 2 2 2 2 2 1 1 1 1 1 1 1 2 2 2 2 2 2
-1 -1 -1 -1 -1 -0 -0 0 0 1 1 2 3 3 3 3 4 4 5 5 5 5 5 5 5 5 6 6 5 5 5 4 4 4 4 4 4 4 4 4 4 4 4 4 4 4 4 4 4 4 3 3 2 2 2 2 2 1 1 1 1 1 1 1 1 1 1 1 2 1 1 1 1 1 1 1 1 1 1 1 1 2 2 2 2 2
-1 -1 -1 -1 -1 -1 -0 -0 0 1 1 2 2 3 3 3 3 4 4 5 5 5 5 5 5 5 5 5 5 5 5 4 4 4 3 3 4 4 4 4 4 4 4 4 4 4 4 4 4 4 3 3 3 2 2 2 1 1 1 1 1 1 1 1 1 1 1 1 1 1 1 1 1 1 1 1 1 1 1 1 1 2 2 2 2 2
-1 -1 -1 -1 -1 -0 -0 -0 0 0 1 1 2 2 3 3 3 3 4 4 4 5 5 5 5 5 5 5 5 5 5 4 4 4 3 3 3 3 4 4 4 4 4 4 4 4 4 4 4 4 3 3 3 3 2 2 1 1 1 1 1 1 1 1 1 1 1 1 1 1 1 1 1 1 1 1 1 1 1 1 1 1 2 2 2 2
-1 -1 -1 -1 -1 -0 -0 0 0 1 1 1 2 2 2 3 3 3 3 4 4 4 4 4 5 5 5 5 5 5 5 4 4 4 4 3 3 3 3 3 3 3 3 3 4 4 4 4 3 3 3 3 3 3 2 2 1 1 1 1 1 1 1 1 1 1 1 1 1 1 1 1 1 1 1 1 1 1 1 1 1 1 1 2 2 2
-1 -1 -1 -1 -1 -0 -0 0 0 1 1 1 2 2 2 3 3 3 3 3 3 4 4 4 4 5 5 5 5 5 5 4 4 4 4 3 3 3 3 3 3 3 3 3 3 3 3 3 3 3 3 3 3 3 3 2 2 1 1 1 1 1 1 1 1 1 1 1 1 1 1 1 1 1 1 1 1 1 1 1 1 1 1 1 2 2
Height
729 730 730 729 730 730 730 731 732 733 733 735 736 738 739 741 742 742 743 744 745 746 747 747 747 747 746 746 745 745 746 746 747 748 750 750 751 751 751 752 753 754 755 756 757 758 759 760 761 762 763 765 766 767 767 767 768 769 770 771 772 773 774 776 778 781 783 786 787 788 790 791 792 793 795 796 797 799 801 802 804 805 807 807 809 811
727 729 729 729 729 729 730 730 730 731 731 732 734 736 737 738 739 740 741 742 743 744 744 744 744 744 743 742 742 742 743 743 744 746 747 747 748 748 749 749 750 751 752 753 754 755 756 757 758 759 760 761 762 764 764 765 766 767 767 767 768 769 771 772 774 777 780 782 785 786 787 789 790 791 793 794 796 797 799 801 802 804 805 806 808 810
727 727 728 728 729 729 729 729 729 729 730 731 732 733 734 735 736 737 738 739 740 741 742 742 742 741 740 740 739 740 740 741 742 743 744 745 745 745 746 746 747 747 748 750 751 752 753 754 755 756 757 758 759 760 762 762 763 764 764 764 765 765 767 769 771 773 776 778 781 783 785 786 787 789 791 792 794 796 797 799 800 802 803 805 807 809
725 725 726 727 728 727 727 727 727 727 728 729 731 732 732 732 733 733 735 736 737 738 739 739 739 738 737 737 737 737 738 738 739 740 741 742 742 742 743 743 743 744 745 746 747 748 749 750 751 752 753 754 756 757 758 759 760 761 762 762 762 762 763 765 767 768 771 774 777 780 782 784 785 787 789 790 792 794 796 797 798 800 802 804 806 807
722 722 723 725 726 725 725 725 725 726 726 728 729 730 730 730 730 731 732 733 734 735 735 735 735 735 735 734 734 735 735 736 737 737 738 739 739 739 740 740 740 741 742 743 744 745 746 747 748 749 750 751 752 754 755 756 757 757 758 759 759 760 761 762 763 764 767 770 774 777 779 781 783 785 786 788 790 792 793 795 797 798 800 802 804 806
719 720 721 722 722 722 723 723 723 723 724 725 726 727 727 727 727 728 729 730 731 731 732 732 732 732 732 732 732 732 733 733 734 735 735 736 736 737 737 737 737 738 739 740 741 742 743 744 745 746 747 748 749 751 752 753 754 755 755 756 757 757 758 759 760 761 763 767 771 774 777 779 781 782 783 785 787 790 792 793 795 796 798 800 802 804
715 716 717 718 718 719 720 720 720 721 722 723 723 724 724 725 725 726 726 727 727 728 728 728 728 729 729 729 730 730 731 731 732 732 732 733 733 734 734 734 735 735 736 737 738 740 741 742 742 743 744 745 746 747 749 750 751 752 752 753 754 755 756 757 758 760 762 766 769 772 775 777 778 779 781 782 785 787 790 791 793 795 797 799 801 803
712 712 713 714 714 715 716 716 717 718 719 720 721 721 722 722 722 723 723 724 724 725 725 725 726 726 726 727 727 727 728 729 729 730 730 730 731 731 731 732 732 733 734 735 736 737 738 739 740 741 741 742 743 744 746 747 748 749 750 751 752 753 755 756 757 759 762 765 768 771 773 775 776 777 778 780 782 785 787 789 791 793 795 797 799 801
708 708 709 709 710 712 712 713 714 715 716 717 717 718 719 719 720 721 721 722 722 722 722 723 723 723 723 724 725 725 726 726 727 727 727 727 727 727 728 728 729 731 732 733 734 735 736 737 737 738 738 739 740 741 742 744 745 746 747 748 750 751 753 754 756 759 762 764 767 769 772 773 774 775 777 778 781 783 785 787 789 791 793 795 797 799
704 705 705 705 706 707 708 709 710 712 713 714 714 715 716 717 717 718 719 719 719 719 720 720 721 721 722 722 723 724 724 724 724 725 725 724 724 725 725 726 727 728 729 730 731 732 733 734 734 735 736 736 737 738 740 741 742 743 744 746 747 749 751 753 755 758 761 763 766 768 770 771 772 773 775 777 779 782 784 786 787 789 791 793 795 797
701 702 702 703 703 704 705 706 707 708 710 711 712 712 712 713 714 715 716 716 716 716 717 717 717 718 720 720 721 722 722 722 722 722 722 722 722 722 723 724 725 726 727 728 729 729 730 731 732 732 733 734 735 736 737 738 740 741 742 743 745 747 749 751 754 756 759 762 764 766 768 770 771 772 773 776 778 780 782 784 786 787 789 791 794 796
699 699 700 700 701 702 702 703 704 705 707 708 709 710 710 710 711 712 712 712 713 713 714 714 715 716 717 718 719 720 721 721 721 720 720 720 720 721 722 722 723 724 725 726 726 727 727 728 728 729 730 731 732 733 734 736 737 738 739 741 742 744 747 749 752 755 757 760 762 764 766 768 769 771 772 774 777 778 780 782 784 786 787 790 792 794
697 698 698 698 699 700 701 701 702 703 704 705 706 706 706 707 707 708 709 709 710 711 712 712 713 714 715 716 717 718 719 719 719 718 718 718 719 719 720 721 722 722 723 723 724 724 724 725 726 726 727 728 729 731 732 733 734 735 737 738 740 742 745 747 750 753 756 758 761 762 765 766 768 769 771 773 775 777 779 780 782 784 786 788 790 793
697 697 697 697 698 699 699 700 700 701 701 702 702 702 703 704 705 706 707 707 708 709 710 711 712 712 712 713 715 716 717 717 717 717 717 717 718 718 719 719 720 720 721 721 721 721 722 722 723 723 724 726 727 728 729 731 732 733 735 737 738 741 743 746 749 751 754 757 759 761 763 765 767 768 769 772 773 775 777 779 781 782 784 787 789 791
695 696 696 697 697 697 698 698 699 699 699 700 700 701 702 703 704 704 705 706 707 708 709 709 710 711 711 712 712 713 715 716 716 716 716 716 716 717 717 718 718 718 718 719 719 719 719 720 721 721 722 722 724 725 727 728 730 732 733 735 737 739 742 744 747 750 752 755 757 759 761 763 765 767 768 770 772 774 776 777 779 781 783 786 788 790
694 695 695 695 696 696 697 697 697 697 698 698 699 700 701 702 702 703 704 704 705 707 707 708 709 709 710 710 710 711 712 714 714 714 714 714 714 714 715 716 716 716 716 717 717 717 717 718 718 718 719 720 721 723 725 726 728 730 732 734 736 738 741 743 746 748 751 753 755 757 760 762 763 765 767 769 771 772 774 776 778 780 782 785 787 789
694 694 694 694 694 695 695 696 696 696 697 697 698 698 699 699 700 701 702 703 704 705 706 707 708 708 708 708 708 709 710 711 712 712 712 712 712 712 713 714 714 714 714 714 714 715 715 716 716 716 717 717 719 721 723 725 727 729 731 733 735 737 740 742 745 747 749 752 753 756 758 760 762 764 766 768 770 771 773 774 777 779 782 784 786 788
695 694 693 693 693 693 694 694 694 695 695 696 696 697 697 698 699 700 700 701 702 703 704 705 706 706 707 706 706 706 707 709 710 710 711 710 710 710 711 712 712 712 712 712 713 713 714 714 714 714 715 716 717 719 721 723 726 728 730 732 734 736 739 741 744 746 748 750 752 754 756 758 761 762 765 767 768 770 771 773 775 778 781 783 785 787
697 696 695 694 693 692 692 692 692 693 693 694 694 695 696 697 697 698 699 699 700 701 702 703 704 704 704 704 704 704 705 707 708 708 709 708 708 708 709 710 710 711 711 711 711 712 712 712 713 713 713 714 716 718 720 722 724 727 729 731 733 735 738 740 743 745 747 749 750 752 754 757 759 761 763 765 766 768 770 772 775 777 780 782 784 786
698 697 696 695 694 693 692 691 691 691 691 692 692 693 694 695 696 696 697 697 698 699 700 701 701 702 702 703 703 703 704 705 706 707 707 707 707 707 708 709 709 710 710 710 710 711 711 712 712 712 713 714 715 717 719 721 723 726 727 730 732 734 737 739 742 744 746 747 749 752 753 755 757 759 761 763 765 767 770 772 775 777 779 781 782 784
698 697 696 696 695 694 692 692 691 691 690 690 691 691 692 693 694 694 695 696 697 697 698 699 699 699 700 701 702 702 702 703 705 706 706 706 706 706 707 707 708 708 709 709 709 710 710 711 711 711 712 713 714 716 718 721 722 725 727 729 731 733 736 738 741 743 745 747 748 750 752 754 756 758 760 762 765 767 770 772 774 776 777 779 781 783
699 697 697 696 696 694 693 692 692 692 691 690 689 689 690 691 692 692 693 694 695 695 696 696 697 697 698 699 699 700 700 702 703 704 705 705 705 705 706 707 707 707 707 708 708 709 709 710 710 711 711 712 714 716 718 720 722 724 726 728 730 733 735 737 739 742 743 745 747 749 751 753 755 757 759 762 764 767 769 771 772 774 776 778 780 782
700 698 697 696 695 694 693 692 692 692 691 690 689 688 688 689 689 690 691 692 692 693 693 694 695 696 697 697 698 698 699 700 701 702 704 704 704 703 705 706 706 707 707 707 707 708 709 709 710 710 711 712 714 716 717 719 722 723 725 727 730 732 734 736 738 740 742 744 746 747 749 751 754 756 759 761 763 765 767 769 771 773 775 777 779 781
699 698 697 696 695 694 693 692 691 691 691 691 690 689 688 688 688 688 689 690 691 691 692 693 694 694 695 696 696 697 697 698 699 701 702 702 702 702 703 705 706 706 706 707 707 707 708 708 709 710 711 712 714 715 717 719 721 723 725 727 729 731 733 735 737 739 741 743 745 747 749 751 753 755 758 760 762 764 766 768 770 772 774 776 778 780
697 697 696 695 694 694 693 692 691 690 689 690 690 690 689 689 688 688 688 689 689 690 691 692 692 693 693 694 694 695 695 697 697 699 700 700 701 701 702 704 705 706 706 706 707 707 708 708 709 710 712 713 714 715 717 718 720 722 724 726 728 730 732 734 736 738 740 742 744 746 748 750 752 754 757 758 761 763 765 767 769 771 773 775 777 779
696 695 694 693 692 692 691 691 690 689 689 689 689 689 689 689 688 688 687 688 688 689 690 691 691 691 692 692 693 693 694 695 696 697 697 699 699 700 702 703 704 705 705 706 706 707 707 708 709 710 712 713 714 715 716 718 719 721 723 725 727 728 730 732 734 737 739 741 743 745 747 749 751 753 755 757 760 762 764 766 768 770 772 774 776 778
694 693 692 692 691 690 690 689 689 688 688 687 688 688 689 689 688 687 687 686 687 687 688 689 689 690 690 691 691 691 692 693 694 695 696 697 698 700 701 702 703 704 705 706 706 707 707 708 709 710 712 713 714 716 717 717 719 721 722 724 725 727 729 731 733 735 737 739 742 744 746 748 750 752 754 756 758 761 763 765 767 769 771 773 775 777
692 692 691 690 690 689 688 688 687 687 687 687 687 687 688 688 687 686 685 685 686 687 687 687 688 688 689 689 689 690 690 691 692 693 694 695 697 698 699 701 702 703 704 705 706 707 707 708 709 710 712 713 714 716 717 718 719 720 722 723 725 726 728 729 731 733 735 737 740 742 744 747 749 751 753 755 757 759 762 764 766 768 770 772 774 776
691 690 689 689 688 687 687 687 686 686 686 685 685 686 686 687 686 685 684 684 685 685 685 686 686 687 687 687 688 689 689 689 690 691 692 694 696 697 698 700 701 702 703 705 706 707 708 708 709 709 711 712 714 716 717 718 719 720 721 723 724 726 727 729 731 733 735 737 739 741 743 746 748 750 752 754 756 758 760 762 765 767 769 771 772 774
689 689 688 687 687 686 686 685 684 684 684 684 684 684 684 684 684 684 683 684 684 684 684 684 685 685 686 687 688 689 688 687 687 688 690 692 694 695 697 698 700 701 702 704 707 708 709 709 709 709 710 711 713 715 716 718 719 720 721 722 724 726 727 729 731 732 734 736 738 740 742 744 747 748 751 752 754 757 759 761 763 765 767 769 771 773
689 688 687 686 685 684 684 683 683 682 682 682 682 682 682 682 682 682 682 682 682 682 682 682 683 684 684 686 687 687 686 685 685 687 688 690 691 692 694 697 698 699 699 701 704 707 708 709 709 709 709 711 712 713 715 717 717 719 720 722 723 725 727 728 730 732 734 736 737 739 741 743 745 747 749 751 753 755 757 759 761 763 765 767 769 772
688 687 686 685 684 683 682 682 681 681 680 680 680 680 680 680 680 680 681 681 680 680 680 681 681 682 682 682 682 682 681 682 683 684 686 688 689 690 692 694 696 697 698 699 700 702 704 707 708 709 709 710 711 712 714 715 717 717 719 720 722 724 726 727 729 732 734 735 737 738 740 742 744 746 748 750 752 754 756 758 760 762 763 766 767 770
687 687 685 684 683 682 682 681 680 680 679 679 678 678 678 678 678 678 678 679 679 679 679 679 679 680 680 680 679 679 679 679 680 681 684 686 687 688 690 692 694 695 697 698 699 699 701 703 706 708 709 710 711 712 713 714 716 717 717 719 720 722 724 727 729 731 733 735 737 738 740 741 743 745 747 748 750 752 754 756 758 760 762 763 766 768
687 686 685 684 682 682 681 680 679 678 678 677 677 677 676 676 676 676 676 677 677 677 677 677 677 677 678 678 678 678 678 678 677 678 681 683 684 686 688 690 692 693 696 697 698 699 700 701 703 706 708 709 710 711 712 713 714 716 716 717 719 721 723 725 727 729 731 733 736 737 739 741 742 744 746 747 749 751 753 755 757 758 760 762 764 766
686 684 684 683 682 681 680 679 678 677 677 676 675 675 675 674 674 674 674 675 675 675 675 674 674 675 675 676 676 676 676 676 676 676 678 680 682 683 686 687 688 690 693 695 696 697 699 700 702 704 706 709 710 711 711 712 713 714 716 717 718 719 721 723 725 727 729 732 734 736 738 739 741 743 745 746 748 750 752 753 755 757 759 761 762 764
684 683 682 682 681 680 679 678 677 676 675 675 674 673 673 672 672 672 672 672 672 673 672 672 672 672 673 673 673 673 674 674 674 674 676 677 679 681 683 684 685 687 689 691 693 695 697 699 701 702 704 707 709 710 710 711 712 713 715 716 717 719 720 722 724 726 728 730 732 734 736 737 739 741 743 745 746 748 750 752 754 756 758 760 762 763
683 682 681 681 680 679 678 677 676 675 674 673 673 672 672 671 670 670 670 670 670 671 671 671 671 671 671 671 671 672 672 672 672 672 673 675 677 678 679 680 682 683 685 687 689 692 694 697 700 702 703 704 705 707 708 709 711 712 714 715 716 718 720 722 723 725 726 728 730 732 733 736 738 740 742 744 746 748 750 752 753 755 757 759 761 763
682 681 680 679 679 678 677 676 675 674 673 672 672 671 670 669 669 668 668 668 668 668 668 668 668 668 669 669 669 670 671 671 670 670 671 672 674 676 677 677 679 680 681 683 685 687 691 694 697 700 701 702 702 704 705 707 709 711 712 713 715 717 718 720 722 724 725 727 728 730 732 734 736 738 741 742 745 747 749 751 752 754 756 758 760 762
681 680 679 678 677 677 676 675 674 673 672 672 671 670 669 668 667 667 666 666 666 666 666 666 666 666 667 667 667 668 669 668 668 668 669 670 672 673 674 675 676 678 679 681 682 684 686 689 691 693 696 699 701 703 704 705 706 708 710 712 714 716 717 719 721 722 724 725 727 729 731 733 735 737 739 740 742 744 746 748 750 752 754 757 759 761
679 678 677 677 676 676 675 674 673 672 672 671 670 669 668 667 665 664 664 664 664 664 664 664 664 664 664 664 665 666 666 666 666 666 667 668 669 670 671 672 673 675 677 679 681 682 683 685 687 688 691 694 697 701 703 704 705 706 707 711 713 715 716 717 719 721 722 723 725 727 728 731 733 735 737 738 739 741 742 744 747 749 752 754 756 759
678 677 676 675 675 674 673 672 672 672 671 670 669 668 667 666 664 662 661 662 662 662 662 662 662 662 662 662 662 663 663 663 663 664 664 665 667 668 669 669 671 672 675 677 678 679 680 682 684 687 689 692 694 697 700 701 702 704 705 707 708 710 712 715 717 719 721 722 723 724 726 728 731 733 734 736 737 738 740 742 744 747 749 751 753 755
679 677 676 675 674 673 672 671 671 670 670 669 668 667 666 665 663 661 659 659 659 660 660 660 660 660 659 659 659 660 660 661 661 661 662 663 664 665 667 667 668 670 672 674 676 677 678 680 682 684 686 689 692 695 698 700 701 702 703 704 706 709 712 715 716 718 719 721 722 723 725 727 729 731 732 734 736 737 739 741 742 745 747 749 751 752
678 677 676 675 673 672 671 671 670 669 669 668 667 665 664 664 662 660 658 657 657 657 658 658 657 657 657 657 657 657 658 658 658 659 660 661 662 663 664 665 666 667 669 672 674 675 676 678 679 681 682 685 688 691 694 697 700 702 702 703 704 707 711 713 714 716 718 719 720 722 723 725 727 729 731 732 734 736 738 740 742 743 745 747 749 751
678 677 675 674 673 672 671 669 668 667 667 666 664 663 662 662 661 659 657 655 654 654 655 656 656 656 655 654 654 655 655 656 657 657 658 659 660 661 662 663 664 665 666 668 671 673 675 677 678 679 681 683 686 688 691 694 697 699 700 701 702 703 704 706 709 713 716 718 719 720 722 723 726 728 730 732 733 735 737 739 741 742 744 746 747 749
677 676 674 673 672 671 669 667 666 665 664 663 661 660 659 659 659 658 656 654 652 652 652 653 654 654 653 652 652 653 653 654 654 655 656 657 658 660 660 661 662 663 664 665 667 668 671 673 675 677 679 682 684 686 688 691 693 696 698 700 701 702 702 704 707 710 713 715 717 718 720 722 724 726 728 731 732 733 735 737 738 740 742 744 746 748
676 674 673 672 671 669 668 667 666 664 662 661 659 658 657 657 656 656 655 653 652 651 650 651 651 651 650 649 650 651 651 652 652 653 654 656 657 658 659 660 660 661 662 663 665 666 667 668 671 674 677 680 682 684 685 687 690 693 695 697 700 702 704 706 707 708 710 712 714 716 718 720 722 724 726 728 730 732 733 735 737 738 740 742 744 746
675 673 672 671 669 668 667 666 665 663 662 660 658 657 656 655 654 653 652 652 651 650 649 649 648 648 647 647 648 649 649 649 650 651 652 653 655 656 657 658 659 660 661 662 663 665 666 667 668 670 673 677 680 682 684 685 687 689 692 694 697 699 702 703 705 707 708 710 712 713 716 718 721 722 724 726 728 730 732 734 735 737 738 740 742 744
673 672 671 669 668 667 665 664 663 662 660 658 657 656 655 653 652 651 650 649 649 649 649 648 646 645 645 645 645 646 646 647 648 649 650 651 652 654 656 657 658 659 660 662 663 664 665 666 667 667 668 671 674 678 681 683 685 687 688 691 694 696 698 700 702 705 707 709 710 711 712 715 717 719 721 723 726 729 731 732 734 736 737 739 741 742
672 671 669 668 667 665 663 662 661 660 658 657 656 654 653 652 652 650 648 647 647 647 647 646 645 643 643 642 643 643 644 645 646 647 647 649 650 652 654 655 657 658 660 662 663 664 666 667 667 667 667 668 670 673 677 680 682 684 687 689 691 693 695 697 700 703 705 707 708 709 710 712 713 714 717 720 723 726 728 730 732 734 736 737 739 741
670 669 668 667 665 663 662 660 659 657 656 655 654 652 652 651 650 649 648 647 645 645 644 643 643 642 641 640 641 641 642 643 643 644 645 646 647 649 651 653 655 657 659 661 662 663 665 666 667 667 667 667 668 670 673 676 679 682 685 687 688 690 692 695 697 700 702 705 706 708 709 711 712 714 715 717 720 723 726 728 731 732 734 736 738 740
668 667 666 665 663 662 661 659 658 656 654 653 652 651 650 649 648 647 647 646 645 644 642 642 641 640 639 638 638 639 639 640 641 642 642 644 645 647 648 650 652 654 656 658 660 661 662 664 665 667 667 667 668 668 669 672 676 679 682 684 686 688 690 692 694 697 700 702 704 706 708 710 711 712 714 715 718 721 724 727 728 730 732 734 736 738
Wind_Speed
25 21 18 18 20 23 26 27 28 29 30 31 33 35 36 36 36 35 34 34 34 33 33 32 30 29 27 26 24 23 22 22 23 24 25 25 25 24 24 25 26 28 29 30 31 31 33 34 37 40 42 44 45 46 48 48 48 48 49 49 49 48 46 42 39 37 35 34 34 33 32 32 31 30 30 34 37 37 35 32 30 29 29 28 26 24
27 25 22 19 19 22 24 26 28 29 30 31 32 34 35 36 36 35 34 34 34 34 33 32 31 29 28 27 26 25 24 24 25 26 26 27 27 27 27 28 29 30 31 31 31 31 31 33 35 38 41 43 44 46 47 49 49 49 49 51 51 50 49 45 42 39 37 36 35 34 34 33 32 30 31 35 38 38 36 33 32 31 30 29 27 24
25 24 24 21 20 21 22 25 27 29 30 31 32 33 34 34 34 34 34 34 34 34 33 32 31 29 28 28 27 26 26 26 27 28 28 29 29 29 29 29 30 31 32 32 32 31 31 31 32 35 38 41 43 45 47 49 49 49 49 52 53 52 51 48 45 42 40 39 38 36 35 34 32 31 32 37 39 39 37 35 33 32 31 30 28 25
24 24 26 24 23 23 23 23 25 27 29 30 31 32 32 32 32 32 33 33 33 33 33 32 31 30 29 29 28 28 28 29 29 30 30 30 30 29 29 30 30 31 31 31 31 31 30 30 30 32 35 39 41 44 46 48 49 50 51 53 54 54 53 51 48 45 43 42 40 38 36 35 32 32 34 38 40 39 37 36 35 34 32 31 28 26
25 26 28 27 26 26 24 23 23 25 28 30 31 31 31 31 31 32 32 32 33 33 33 32 32 31 31 30 30 30 30 30 31 31 30 30 30 29 29 28 29 29 30 30 30 30 30 29 29 30 33 36 39 41 44 46 49 50 52 54 55 55 54 53 50 47 45 43 41 39 37 36 34 33 35 40 41 40 38 37 36 35 33 31 29 27
26 27 28 28 28 27 25 23 23 24 26 28 30 30 31 31 31 31 31 32 32 33 34 34 34 33 32 32 32 32 31 31 31 31 30 29 29 28 27 27 27 27 28 28 29 29 30 29 29 30 31 33 36 39 42 44 48 50 52 54 55 55 55 54 51 48 45 42 40 39 38 37 36 36 38 41 42 41 39 38 37 36 34 32 30 27
26 26 26 27 28 27 26 24 23 24 24 25 26 28 29 30 30 30 30 31 32 33 34 34 34 34 33 33 33 32 31 31 30 30 29 28 28 27 26 26 26 26 27 27 28 29 29 29 29 30 31 32 34 37 39 42 46 49 51 53 54 54 54 52 50 47 43 40 39 38 37 37 38 40 42 43 43 42 40 39 38 36 35 33 31 28
25 25 26 25 26 26 26 26 26 25 25 24 23 23 25 26 27 28 29 30 31 31 31 32 32 33 33 32 32 31 30 30 29 29 29 28 27 27 26 26 26 26 26 27 27 28 29 29 29 30 31 32 34 35 37 41 44 48 50 52 53 52 51 49 46 43 40 38 38 37 36 37 39 42 44 44 44 43 41 40 39 38 36 34 32 29
25 25 24 24 24 24 24 25 27 28 27 25 23 21 21 21 23 24 26 27 29 29 29 29 29 29 30 30 30 29 28 28 28 28 27 27 27 26 26 26 26 26 26 26 26 27 27 28 29 30 31 32 33 34 36 39 43 46 48 50 51 50 49 46 43 40 38 37 37 37 36 37 39 41 44 44 44 43 42 41 40 39 37 35 32 30
24 24 21 22 24 24 23 22 24 27 28 27 26 24 22 20 20 21 21 24 27 29 29 28 27 26 26 26 26 26 25 25 26 26 26 26 25 25 25 25 25 25 25 25 25 25 26 27 28 29 30 31 32 33 35 38 42 45 48 49 49 49 47 43 40 38 37 37 37 37 36 37 39 41 43 43 43 43 43 42 41 40 38 35 33 30
19 20 19 20 21 23 23 22 22 24 27 28 28 27 25 25 23 21 19 21 23 25 26 27 27 25 23 22 22 22 22 22 23 24 24 24 24 23 23 24 24 24 24 24 24 24 25 26 27 28 30 31 32 33 35 38 42 45 47 48 49 47 45 42 39 38 37 37 37 37 36 37 39 41 42 42 42 43 43 43 42 40 38 36 33 30
14 15 16 17 16 17 19 21 22 24 25 24 23 23 24 26 26 23 21 20 20 21 21 23 25 25 24 21 20 19 19 19 20 20 20 21 21 21 22 22 23 23 24 24 24 24 24 25 26 28 29 30 32 33 35 38 42 45 48 48 48 46 44 41 39 39 38 38 37 37 37 38 39 41 42 42 43 44 44 44 43 41 38 36 33 30
14 14 13 14 14 14 15 15 16 18 20 20 19 18 19 21 23 22 21 19 18 17 17 17 19 21 23 22 21 19 17 17 17 17 17 18 19 20 20 21 22 23 23 24 24 24 25 25 26 27 28 29 31 33 36 39 43 46 48 48 47 46 43 41 40 39 39 38 38 38 37 38 39 41 42 43 43 44 45 44 43 41 38 35 32 30
11 11 11 10 11 13 14 13 13 13 16 18 19 20 19 18 18 18 17 16 15 14 13 13 14 16 18 20 21 20 18 17 17 17 17 18 19 19 19 20 21 22 22 23 24 25 24 24 25 26 27 28 30 33 36 40 43 46 48 47 47 45 43 41 41 40 39 39 39 38 38 38 39 41 42 43 44 45 45 44 42 40 37 34 32 29
10 9 7 6 8 10 13 14 14 15 16 18 19 19 18 15 14 14 14 13 13 13 12 11 11 12 14 17 19 20 19 18 18 18 18 20 21 21 20 20 21 22 22 22 23 24 23 23 24 25 26 27 30 33 37 40 44 46 47 47 46 44 43 42 41 40 40 40 40 39 39 39 40 41 42 43 44 45 44 43 41 38 36 33 30 28
10 9 7 6 7 10 13 14 15 16 16 17 17 17 15 14 14 14 14 13 13 12 11 9 9 9 11 15 17 19 19 19 18 18 19 21 22 23 22 21 21 22 22 22 22 22 22 22 23 24 25 27 29 33 37 41 44 46 46 46 44 43 42 41 40 39 39 40 41 42 41 41 41 42 42 43 44 44 43 42 40 37 34 31 28 26
8 9 9 9 9 11 13 15 16 16 16 16 16 17 17 16 15 15 14 13 12 11 10 9 5 3 6 10 14 16 17 17 18 18 19 20 22 23 23 21 21 22 22 22 22 21 21 22 22 23 25 26 29 33 38 41 44 45 46 45 43 42 41 40 39 39 40 42 43 44 43 42 42 42 42 43 43 43 43 42 39 36 33 29 27 25
9 8 9 9 10 12 13 15 16 16 16 16 16 17 18 18 17 15 15 14 12 11 11 11 8 4 2 6 9 11 14 14 15 17 17 18 20 21 21 20 20 21 21 22 21 21 21 22 22 23 24 26 29 34 38 42 44 45 45 44 43 41 40 39 39 39 41 43 44 45 45 44 44 44 44 44 44 44 43 41 38 34 31 28 26 24
12 11 10 9 10 12 13 15 16 17 17 17 17 17 17 17 17 16 15 15 14 14 13 11 11 10 9 10 10 11 11 11 13 15 15 15 17 19 19 18 18 20 21 21 21 21 22 22 22 23 25 27 30 34 39 43 45 45 45 43 42 41 40 39 39 40 42 43 44 45 45 45 46 46 46 46 45 44 41 38 34 31 29 27 25 24
13 13 13 12 11 10 11 13 16 17 18 19 18 17 16 16 16 16 16 16 17 17 16 14 13 13 14 14 13 12 12 10 11 13 14 14 16 17 18 17 18 19 20 21 22 22 22 22 23 24 25 28 31 36 41 44 45 45 44 43 42 41 40 39 40 41 42 44 44 45 45 46 47 48 48 46 44 40 37 34 31 29 28 27 25 24
14 14 14 15 15 12 9 10 12 15 18 19 19 18 17 16 16 16 17 17 17 17 17 15 16 16 16 15 14 14 15 13 13 13 13 13 15 16 17 18 18 20 21 21 22 22 22 23 24 26 28 30 34 38 42 44 45 44 43 42 41 40 40 40 40 41 43 44 46 46 47 47 48 47 46 43 39 36 33 31 30 29 28 27 25 24
15 16 17 18 18 17 15 15 13 11 14 17 19 19 17 17 16 16 17 17 17 17 17 18 18 18 17 16 16 17 18 16 15 14 12 10 12 15 18 19 20 20 21 22 22 23 24 25 26 28 30 33 36 40 43 44 44 43 42 41 41 41 40 40 41 42 43 45 47 48 49 49 47 45 42 38 35 32 31 30 30 29 28 27 25 24
16 17 18 19 20 20 21 21 20 16 12 13 17 20 19 19 18 18 19 19 19 19 20 19 19 19 19 18 18 19 19 18 17 16 13 8 8 13 17 20 21 20 20 21 22 23 25 27 28 30 32 35 38 41 43 43 42 41 41 41 41 41 41 41 42 42 43 45 47 48 48 47 45 41 37 34 32 31 31 30 30 29 28 26 24 23
16 17 17 18 19 21 22 23 23 22 19 15 14 16 19 20 21 21 21 21 21 21 20 20 19 18 18 19 19 19 19 19 18 17 15 11 10 13 17 21 20 18 18 20 22 24 26 28 29 31 33 36 39 42 43 42 42 41 41 42 42 42 42 42 42 43 43 44 45 45 44 42 40 37 34 32 31 31 30 30 29 29 27 26 24 22
17 17 18 18 19 20 21 23 24 24 23 22 19 17 16 18 19 20 20 20 20 19 18 16 14 13 14 16 17 18 20 20 20 19 17 12 10 12 17 21 20 18 17 19 22 24 26 27 29 31 33 36 39 42 43 42 41 41 42 43 44 44 44 44 44 43 43 43 43 42 40 38 36 34 33 32 31 30 30 30 30 29 28 26 24 22
19 19 19 19 18 17 17 18 20 21 22 23 22 21 19 17 17 18 18 17 17 17 15 12 10 10 13 13 15 17 20 21 23 22 19 14 10 11 17 22 21 17 16 18 20 22 23 25 27 29 32 34 37 40 42 42 42 42 44 45 47 47 47 47 46 46 45 44 43 41 39 37 35 34 33 33 32 32 31 31 31 30 28 26 24 23
22 23 23 22 20 18 17 16 17 18 19 20 21 21 21 20 18 16 14 15 16 16 14 9 6 7 10 10 12 16 20 23 25 26 23 18 12 11 16 21 21 18 15 16 18 20 21 22 24 27 30 33 35 38 41 42 42 42 44 46 48 49 49 49 49 48 48 47 45 43 40 38 37 35 35 34 34 33 33 33 32 30 28 26 25 23
25 25 25 25 24 23 21 19 18 17 18 18 19 19 20 21 18 14 13 14 16 16 14 9 5 4 5 7 11 15 20 23 26 28 26 20 13 11 16 21 21 18 15 15 16 19 19 20 22 25 28 31 34 36 38 40 42 43 44 45 47 48 49 49 49 49 48 47 46 44 42 39 38 36 36 35 35 35 34 34 32 31 28 27 25 24
25 26 26 26 26 25 24 23 22 20 19 19 18 18 19 20 20 18 15 15 16 16 15 13 11 8 7 9 11 13 17 22 27 29 28 21 13 12 18 22 21 19 17 14 13 13 15 17 20 24 27 30 32 34 36 38 40 42 43 43 44 45 46 46 46 45 45 44 43 42 40 39 38 37 36 36 36 36 35 34 33 31 29 27 26 26
24 24 25 25 24 24 24 24 23 22 21 20 19 19 19 20 21 22 20 17 16 16 15 15 14 12 10 8 6 6 11 19 26 30 30 21 14 13 19 21 22 21 20 14 8 4 7 13 18 22 26 29 31 32 34 36 38 40 41 42 42 42 42 42 42 41 40 39 39 38 38 37 37 37 37 36 36 36 36 34 33 31 29 28 27 26
23 23 22 22 22 21 21 21 22 21 21 20 19 19 19 20 21 22 22 21 19 19 17 16 15 15 13 6 3 2 5 15 25 31 32 24 17 16 21 21 22 24 24 17 7 1 3 8 14 20 24 27 29 31 33 35 36 38 39 40 41 41 41 40 39 38 37 37 37 37 37 37 37 37 37 37 37 36 36 35 33 31 30 29 28 27
22 22 21 21 20 20 20 20 19 19 19 19 19 19 20 20 21 22 23 24 23 22 20 18 17 17 16 12 8 6 6 13 23 31 33 25 18 18 23 21 21 24 26 22 15 8 5 4 10 17 21 24 27 29 31 34 35 36 37 38 38 38 39 39 39 38 37 38 38 38 38 38 38 37 37 37 37 37 36 35 33 32 31 30 29 28
22 21 21 21 20 20 19 19 19 19 19 19 19 19 20 20 21 22 23 25 26 25 23 21 19 18 18 18 17 15 14 15 22 30 34 27 20 17 21 22 22 22 24 23 19 14 10 9 12 15 18 20 23 26 29 32 33 35 36 37 36 36 38 39 39 38 38 38 38 38 38 38 38 38 38 38 37 36 36 34 33 32 31 30 30 29
22 22 21 21 20 20 20 20 19 19 19 20 20 20 20 21 21 22 23 25 26 27 27 25 22 19 18 17 18 18 17 16 20 28 33 31 23 19 21 22 22 21 22 20 16 13 11 14 15 15 14 17 21 23 26 29 31 34 36 36 36 35 37 38 38 38 38 38 38 38 38 38 38 38 38 38 37 36 35 34 33 32 31 30 30 29
22 22 21 21 20 20 20 20 20 20 20 20 21 21 21 21 22 22 23 24 26 28 29 29 28 25 22 19 18 17 16 16 20 26 33 33 27 22 22 22 23 23 22 20 16 12 10 14 18 18 15 15 17 20 24 26 29 32 34 36 36 36 37 38 38 38 37 37 37 38 38 38 38 38 38 38 37 36 35 33 32 31 30 29 29 29
21 21 21 20 20 20 20 20 20 20 20 21 21 21 21 22 23 23 24 24 25 27 29 31 31 31 28 25 23 20 18 18 20 25 31 34 31 26 22 22 25 26 24 22 19 16 13 14 17 20 18 15 14 15 20 24 27 30 32 34 35 36 37 38 38 37 37 36 35 36 37 38 37 37 38 37 36 35 33 32 31 30 29 28 28 28
20 20 20 20 19 20 20 20 20 20 20 20 20 21 22 23 24 24 24 25 25 27 28 30 32 33 33 31 29 26 22 20 22 26 30 34 34 29 24 23 27 29 27 24 22 20 17 15 15 17 18 17 16 16 18 23 26 28 30 32 34 35 36 36 37 37 36 36 35 35 37 37 36 35 36 35 34 33 31 30 29 28 28 27 27 26
20 20 20 19 19 19 19 19 19 19 19 19 20 21 22 23 23 24 24 25 26 27 28 30 31 33 34 34 33 30 26 23 23 26 30 34 35 31 27 25 28 31 30 28 27 24 21 15 12 10 12 17 18 19 21 24 25 26 28 31 33 34 35 35 36 36 36 36 35 36 37 37 35 34 34 34 33 32 30 29 28 27 27 26 25 25
19 19 19 19 19 19 19 19 19 19 19 19 20 21 23 24 24 25 25 25 26 27 28 30 31 33 34 35 35 33 29 26 25 26 30 34 36 34 30 27 28 31 31 30 28 27 25 21 17 13 12 14 16 18 21 25 26 27 28 29 31 33 34 35 35 35 35 35 35 35 36 36 35 33 33 34 33 32 31 30 28 28 27 26 25 25
18 19 19 19 19 19 19 20 20 20 20 21 22 23 24 25 26 26 26 25 26 26 28 29 31 33 35 36 36 35 33 30 28 27 29 34 37 37 33 30 30 30 31 30 28 28 27 26 24 24 24 21 19 18 20 23 26 27 27 25 24 27 32 34 34 34 35 35 35 35 35 35 35 33 33 33 33 32 32 31 29 29 28 28 28 27
19 19 20 20 20 20 21 21 20 20 21 21 22 23 24 25 26 26 25 25 25 25 26 28 30 32 33 35 36 35 34 32 30 29 30 33 38 39 35 33 32 32 31 30 29 28 28 27 26 26 26 25 24 23 22 24 26 28 28 26 25 27 31 33 33 33 34 34 35 36 35 35 35 34 32 33 33 33 32 31 30 29 29 29 30 30
19 19 20 20 20 20 20 20 20 21 22 22 23 23 24 24 24 24 23 23 23 24 25 27 28 28 29 30 32 33 33 32 31 30 31 33 37 40 38 36 34 33 32 30 29 28 28 28 26 26 26 26 25 22 21 24 27 28 29 27 27 27 28 30 32 32 32 32 34 34 34 33 33 33 32 32 32 31 31 30 30 30 29 30 30 31
19 20 20 21 21 22 22 22 22 23 23 23 23 23 23 24 24 24 23 21 21 22 24 25 26 26 24 24 25 28 30 31 31 30 31 33 37 39 39 37 36 35 34 31 28 27 28 27 27 27 28 28 27 25 23 24 25 27 27 28 27 24 19 23 29 31 31 31 32 33 33 33 32 32 31 31 30 29 29 29 29 29 29 29 30 30
20 20 21 21 21 22 23 23 23 23 23 24 24 24 23 23 25 26 24 22 20 20 19 23 25 24 21 20 20 22 25 27 28 29 31 33 37 39 40 38 37 37 36 33 29 27 26 25 25 26 27 28 28 27 26 26 26 27 27 29 29 27 24 26 30 32 30 30 31 32 33 32 31 30 30 30 29 29 28 28 28 28 28 29 30 31
20 20 20 20 20 20 21 21 21 22 22 23 24 25 24 23 24 25 25 23 21 20 17 21 21 18 17 17 17 18 20 23 25 28 30 33 37 40 40 38 37 37 37 35 33 30 27 25 24 25 27 27 28 27 27 27 28 28 28 28 29 29 28 29 32 33 31 30 30 31 32 32 32 30 29 28 27 27 28 28 28 28 29 28 29 30
20 20 20 20 20 20 21 20 21 21 21 22 23 24 24 24 24 24 25 23 22 20 21 21 20 17 16 15 14 15 17 18 21 25 29 33 37 39 39 37 37 37 36 36 35 33 32 30 29 27 25 25 25 27 29 29 29 28 28 28 28 26 25 27 30 33 33 31 31 31 33 33 32 30 28 27 27 28 28 27 28 28 29 29 29 31
20 20 20 20 20 20 21 21 22 22 22 22 22 22 22 22 23 23 24 23 22 20 19 19 20 20 19 17 15 15 16 16 17 20 24 29 33 36 37 35 34 35 36 36 34 33 33 33 33 31 29 26 23 23 26 29 30 30 29 29 28 27 25 27 30 33 33 31 31 32 34 33 31 29 28 27 27 27 27 27 28 29 29 30 30 31
20 20 21 21 21 21 21 21 21 21 22 22 22 22 22 21 21 21 22 22 22 21 19 18 18 19 19 18 18 19 19 18 18 19 22 25 29 32 33 32 31 32 33 33 32 31 30 31 33 34 34 30 26 24 25 27 30 31 31 31 30 28 26 28 31 33 33 32 33 34 36 34 32 29 28 27 25 25 26 27 28 29 30 30 31 31
20 21 21 21 21 21 21 22 22 22 22 22 23 23 23 23 22 21 19 19 20 20 21 19 18 18 17 17 18 19 20 19 19 20 21 24 26 29 30 29 28 27 28 27 27 26 26 27 30 33 35 34 32 28 27 27 29 31 31 31 31 29 28 29 32 34 33 32 34 36 37 35 33 32 30 28 25 24 25 27 29 30 30 30 30 31
21 21 21 21 21 21 21 21 21 21 21 21 22 22 23 23 23 22 21 18 17 18 19 19 19 17 17 17 17 18 19 19 19 20 21 23 25 27 27 27 26 24 23 22 21 20 20 21 23 28 33 35 34 32 29 29 29 30 30 30 30 30 29 29 32 34 34 33 34 36 36 34 32 31 30 28 26 25 24 25 27 30 31 31 31 30
22 22 22 21 21 21 21 21 20 20 21 20 20 21 22 23 23 23 22 20 18 17 18 18 19 18 18 18 18 18 20 20 19 19 21 22 24 26 26 26 25 23 20 17 15 14 13 12 13 17 24 31 33 34 33 32 30 29 27 28 29 30 29 30 32 34 35 34 35 36 35 33 31 30 29 28 26 24 23 24 26 29 32 32 31 30
Wind_Direction
246 245 240 236 231 230 231 231 228 224 223 225 226 227 228 228 229 230 230 231 232 233 234 237 240 245 249 252 253 254 254 254 255 256 255 254 253 251 250 249 249 250 251 251 250 248 246 243 242 241 240 240 238 236 234 231 227 224 223 223 222 220 218 216 211 207 206 208 209 210 209 207 208 211 214 209 201 195 194 192 192 194 200 204 206 204
244 244 243 237 229 225 227 228 226 223 221 221 223 224 226 226 228 229 229 230 230 232 234 237 241 246 250 254 256 257 258 258 258 257 256 254 252 250 248 247 247 249 250 252 253 252 250 246 243 241 240 240 238 237 234 232 229 224 221 221 220 220 219 217 213 208 205 206 208 208 208 206 206 209 212 208 200 195 193 192 192 195 200 204 205 202
241 242 241 236 228 222 222 224 224 223 222 222 223 224 225 225 227 229 231 232 233 234 236 239 243 247 251 256 258 260 260 260 260 259 257 254 252 249 247 246 246 247 249 252 253 254 252 249 245 242 240 239 238 237 235 234 231 226 222 220 219 219 219 219 216 210 205 204 206 207 206 204 205 208 210 205 198 193 192 191 192 195 200 203 203 200
238 239 239 238 232 226 222 221 222 223 224 224 224 225 225 226 228 231 234 236 238 239 242 245 248 251 254 257 259 260 261 261 260 259 257 254 252 250 248 247 247 248 249 251 252 254 253 251 248 244 241 240 238 237 236 235 233 229 224 220 218 218 219 220 218 212 206 203 203 204 204 202 203 206 207 201 195 192 192 191 192 194 199 201 201 199
236 237 238 238 237 233 228 223 221 222 224 225 225 225 225 226 229 232 236 239 242 245 248 251 254 255 257 258 259 260 260 260 259 257 255 253 251 250 249 248 248 248 249 250 251 252 253 252 250 247 243 241 239 237 236 235 234 231 227 222 219 218 219 220 218 212 206 202 201 202 202 201 202 205 206 200 194 191 192 192 192 194 198 200 199 197
236 235 235 235 235 235 232 227 223 221 222 223 224 225 225 227 229 232 234 238 242 247 251 254 257 258 258 258 259 259 258 257 256 254 253 252 251 250 249 249 248 248 248 249 250 250 251 251 250 248 246 243 240 238 236 235 234 232 228 223 219 218 219 218 215 210 203 199 198 200 201 201 203 205 205 200 194 191 191 192 193 194 197 199 198 196
234 230 228 228 230 231 231 229 226 221 218 218 219 222 224 226 228 231 234 237 241 245 249 252 254 255 256 256 256 255 254 253 252 251 250 249 249 249 248 248 247 247 247 247 247 247 248 248 248 247 246 244 242 240 237 236 234 231 227 222 218 217 216 215 211 205 199 196 196 198 200 201 202 202 201 198 194 192 192 193 194 195 197 198 197 195
231 226 223 221 223 226 228 228 227 222 217 214 213 215 219 223 226 229 233 236 239 241 243 245 248 249 250 251 251 251 250 249 248 247 248 248 248 248 248 248 248 247 247 246 245 245 244 244 244 244 244 243 242 240 238 237 234 230 225 220 217 215 213 210 206 200 195 193 194 197 199 201 201 199 196 195 193 192 193 194 194 195 197 198 197 195
229 228 224 216 215 218 222 224 224 222 218 214 212 211 213 217 222 227 230 233 234 235 235 236 238 241 243 245 246 246 246 246 246 247 247 248 249 251 252 252 252 251 249 248 246 244 243 241 241 240 241 241 241 240 239 237 233 229 223 218 215 212 210 206 201 196 192 191 193 196 199 201 201 197 194 193 193 193 193 195 195 196 197 197 197 195
233 231 226 220 217 216 216 218 220 219 218 216 216 216 216 216 220 223 226 227 229 230 230 229 229 232 235 238 240 241 243 245 247 249 250 252 254 256 257 258 257 256 254 252 249 246 243 240 239 238 238 238 239 239 238 236 232 226 221 216 213 210 207 202 197 192 190 191 193 196 198 201 200 197 194 193 193 193 194 195 196 196 197 197 196 194
237 235 233 230 224 218 214 214 215 215 216 217 219 221 224 223 222 221 221 223 224 225 225 225 225 226 228 231 234 237 239 242 246 250 253 256 258 259 260 260 259 258 256 254 252 248 244 241 238 237 236 237 237 238 237 234 229 224 218 214 211 207 204 198 193 189 189 191 194 196 198 201 199 196 194 194 194 195 195 196 197 197 196 195 194 192
242 240 239 236 230 219 213 211 211 212 212 213 216 221 224 224 222 219 218 220 221 219 218 221 224 226 227 228 231 234 236 239 243 248 252 255 257 258 258 257 256 255 255 254 252 249 245 241 238 236 236 236 237 237 236 232 227 222 216 212 208 205 200 195 190 188 189 192 194 196 197 199 198 195 193 194 195 195 196 196 196 196 195 194 192 191
248 245 240 233 225 217 210 205 203 202 202 205 210 214 218 219 218 216 216 217 216 213 211 215 222 227 230 231 231 232 233 236 239 243 247 250 253 254 253 253 252 253 252 252 250 248 245 241 238 235 234 235 236 236 234 230 225 219 214 209 206 202 197 192 189 188 189 191 194 196 196 197 196 193 192 193 194 194 195 195 195 194 193 192 191 192
244 239 231 218 210 207 204 198 193 193 199 203 208 212 214 215 214 213 215 217 217 214 212 213 219 226 233 235 235 234 232 234 237 241 244 246 248 249 249 250 252 253 252 251 250 248 245 241 237 234 232 233 235 235 232 228 222 216 211 206 202 199 194 190 188 188 188 191 193 195 195 196 195 194 192 192 193 193 193 193 193 193 192 192 192 193
228 223 216 206 202 201 202 200 200 203 206 207 208 210 211 211 211 212 215 220 224 225 225 225 228 232 238 241 242 240 237 236 239 242 245 247 248 248 247 248 251 254 254 252 251 250 246 242 238 234 231 231 232 231 228 223 217 212 206 202 199 195 191 189 188 187 188 191 193 195 195 195 195 194 192 192 192 192 192 192 193 193 193 193 193 194
221 213 211 207 205 206 206 206 207 209 210 209 208 208 208 208 210 213 215 220 223 225 224 228 236 243 246 247 248 246 243 239 239 242 245 247 249 249 248 247 249 252 253 252 251 250 247 243 239 235 231 230 229 227 223 217 212 206 201 198 195 192 189 188 187 188 189 192 194 194 194 194 194 193 192 192 192 191 192 192 193 193 193 194 194 195
244 224 218 216 215 214 212 211 212 213 213 211 210 210 210 210 212 214 214 214 212 211 213 217 219 239 247 245 247 248 244 238 236 238 241 244 247 250 249 246 246 249 251 251 251 250 248 244 240 236 232 229 227 223 218 212 206 201 197 193 191 189 188 187 188 189 191 193 194 193 192 192 192 192 192 192 191 191 192 192 192 192 192 193 194 196
297 267 242 231 225 222 218 215 214 215 215 212 211 213 214 215 215 213 211 207 203 202 208 214 216 218 233 235 239 244 243 234 230 231 235 239 243 247 247 245 245 246 248 249 249 249 246 243 239 235 231 228 224 219 213 207 201 196 193 190 188 187 187 187 188 190 192 192 191 189 188 188 190 191 191 192 191 191 191 190 190 190 191 193 195 197
318 311 294 269 251 239 229 220 216 215 214 212 211 211 213 215 214 212 209 206 206 208 210 214 220 227 234 239 242 243 244 234 225 225 229 234 239 241 242 240 239 241 243 244 244 244 243 241 238 235 231 226 221 214 208 202 197 192 189 187 186 186 187 187 189 190 191 190 188 185 184 185 187 190 191 191 190 189 188 188 188 189 191 193 195 196
316 316 315 309 296 274 250 233 223 217 215 213 212 210 209 211 211 210 210 210 213 216 217 218 222 228 235 241 243 242 240 232 222 220 225 230 234 235 235 230 228 230 233 235 236 236 235 234 233 231 227 223 216 209 202 197 193 190 187 186 185 186 187 188 189 190 190 189 188 186 185 186 187 189 189 189 187 186 185 187 189 191 193 194 194 195
311 311 314 319 317 309 291 268 245 230 221 217 212 209 209 210 210 210 211 212 214 216 218 219 225 230 233 236 236 236 237 228 215 212 221 225 229 229 227 220 217 219 222 225 225 225 224 224 223 222 219 215 209 203 198 193 190 188 186 185 185 186 187 188 189 190 190 190 189 189 189 188 188 188 186 185 184 184 186 189 191 193 193 193 192 192
309 309 312 314 315 315 314 311 299 271 239 224 214 209 210 210 210 211 214 213 214 215 218 224 229 232 232 231 231 234 236 231 218 209 212 217 224 224 220 211 208 210 214 216 216 215 213 213 214 213 211 207 202 197 194 191 189 187 185 185 186 186 187 188 190 190 190 190 189 189 189 189 188 186 184 184 185 187 189 191 192 192 191 191 190 190
305 305 308 309 309 310 311 313 314 309 288 248 227 220 219 216 214 215 217 216 217 220 225 227 230 231 231 228 229 231 233 231 224 214 205 206 220 222 214 205 202 204 208 210 208 205 204 204 205 205 203 200 196 194 191 189 188 186 185 186 186 187 188 189 190 191 191 190 189 187 186 186 186 186 186 187 189 190 191 191 191 190 190 189 189 188
309 307 307 308 307 306 305 304 306 308 309 295 266 242 232 228 226 226 226 225 224 225 226 226 227 228 229 226 225 225 227 225 219 211 205 209 217 217 210 202 198 198 204 205 202 198 197 197 199 198 196 194 193 192 190 189 187 186 186 187 188 189 190 190 191 192 192 191 189 186 185 184 185 187 189 191 193 193 192 191 190 190 189 188 188 187
313 314 313 311 309 306 303 300 298 298 300 302 297 282 260 245 237 233 231 229 226 222 219 216 216 219 221 219 217 217 220 219 214 208 205 207 208 206 205 199 195 194 199 201 199 195 194 194 194 194 192 191 191 190 190 189 188 187 187 188 189 190 190 191 191 192 192 192 190 188 187 187 188 190 192 194 195 194 193 192 191 190 189 188 187 187
304 305 307 307 307 307 305 302 297 293 291 291 293 293 288 272 255 242 232 225 218 210 203 200 204 211 213 210 209 212 214 213 210 207 204 199 190 191 199 195 192 192 194 195 193 191 190 191 191 191 189 189 189 190 190 189 189 188 189 189 189 189 189 190 190 191 192 192 192 191 191 191 192 193 195 196 195 195 194 193 192 190 189 188 187 186
298 297 297 298 299 302 305 304 301 296 290 285 283 284 287 283 269 249 232 221 211 202 195 198 209 213 209 207 209 212 212 208 205 204 203 196 185 181 191 191 189 187 185 185 186 186 185 185 187 188 187 187 187 188 189 190 190 190 190 190 189 188 187 187 187 188 190 191 192 192 193 193 194 195 195 195 195 194 193 193 192 190 188 186 185 185
303 300 298 296 296 296 298 300 302 301 297 291 284 279 277 276 267 248 230 221 211 204 203 205 208 208 205 209 211 212 210 206 203 201 201 196 188 182 187 187 185 181 175 174 178 182 181 180 182 184 185 185 186 186 187 189 190 191 191 191 189 187 186 185 185 186 187 188 189 191 192 193 194 194 195 195 194 194 194 193 192 189 187 185 184 184
310 308 305 302 299 297 295 295 297 299 301 299 293 284 275 268 261 252 242 230 216 208 210 214 216 216 214 210 207 207 208 207 204 201 198 192 185 183 185 182 180 177 171 163 164 173 178 179 179 181 182 183 184 184 185 186 187 189 190 191 190 188 187 186 185 185 186 187 188 189 191 192 193 193 194 194 194 194 194 193 191 187 185 184 184 184
312 312 310 308 305 302 299 296 294 295 297 299 297 290 280 269 261 256 251 241 223 212 214 218 219 217 213 202 194 200 210 211 207 202 196 189 184 181 179 177 177 177 172 158 144 151 182 184 182 180 180 181 183 184 184 183 183 184 185 187 188 188 188 187 187 187 188 188 189 190 191 192 192 193 193 194 194 195 194 192 189 185 184 184 184 185
309 309 308 307 307 305 302 298 295 293 293 294 293 290 284 275 266 259 254 246 232 220 218 219 219 216 209 194 172 192 215 213 208 203 196 190 185 181 177 175 178 180 178 171 158 109 188 196 191 184 179 179 181 183 184 183 182 180 180 181 183 185 187 188 189 190 190 192 192 192 192 192 192 193 193 194 195 194 193 190 187 185 184 184 185 187
304 303 302 303 303 303 301 298 294 291 289 288 287 285 282 278 273 265 257 249 239 230 224 222 221 217 212 210 211 217 224 212 207 202 196 191 187 183 181 179 180 183 184 182 180 175 168 183 194 189 179 177 179 181 184 185 183 181 180 179 179 181 185 188 190 190 191 192 194 194 194 193 193 193 194 194 194 193 191 188 187 186 186 186 186 188
299 298 298 298 298 298 296 294 292 289 286 283 280 278 277 275 273 269 263 254 246 237 229 225 221 219 217 218 222 227 229 217 208 202 197 191 186 182 182 181 181 183 185 187 187 186 180 173 179 183 182 178 177 179 182 184 185 184 182 180 178 179 182 185 187 188 188 189 191 192 192 193 193 193 194 194 193 191 189 188 188 189 189 189 188 188
295 294 294 294 294 293 292 291 289 287 284 280 277 273 271 269 269 268 266 259 251 243 235 228 223 220 218 221 225 229 230 220 211 204 197 192 187 182 180 180 180 181 183 188 190 187 177 168 169 173 180 182 179 177 178 180 183 184 184 182 180 178 179 181 182 183 183 184 185 186 187 189 190 191 192 192 191 190 188 188 190 192 193 193 190 189
291 290 290 290 291 290 290 288 287 285 282 279 275 271 267 264 263 263 264 261 256 248 241 235 230 226 222 222 224 227 226 219 212 205 198 194 191 187 184 184 183 181 181 185 185 177 161 162 167 170 172 178 181 179 177 178 180 182 183 183 181 179 179 180 180 180 179 180 180 181 183 184 186 187 188 189 189 188 188 189 191 194 196 196 194 191
287 287 286 286 286 286 286 285 284 283 281 278 275 271 267 263 260 259 260 260 257 253 247 241 236 232 229 227 227 227 225 220 213 206 200 196 193 190 187 188 187 184 182 184 184 179 169 165 168 171 170 173 180 184 182 179 178 178 180 181 181 180 180 180 180 179 177 177 177 178 180 181 182 183 185 187 188 188 189 190 191 194 196 196 196 195
284 283 283 283 282 282 282 282 281 280 279 277 275 272 268 263 260 258 257 257 257 255 251 246 241 237 234 233 232 231 229 225 217 209 203 198 196 193 191 191 190 187 184 184 184 181 174 167 167 172 175 178 181 183 183 179 177 176 176 178 178 178 179 180 180 179 177 176 176 177 179 180 180 181 183 185 186 187 187 189 191 193 195 196 197 196
283 282 282 281 280 280 280 280 279 278 278 277 275 273 270 266 261 258 256 255 256 255 253 249 245 240 237 235 234 233 232 229 223 214 206 200 198 196 194 192 191 190 189 187 184 180 173 168 165 171 182 186 185 182 179 177 176 176 176 177 177 177 178 179 179 179 178 177 177 177 179 179 179 180 181 182 182 183 183 185 188 191 194 196 196 195
282 281 281 280 279 278 278 278 278 278 279 278 278 277 275 270 265 260 255 254 254 254 253 250 247 244 241 238 235 233 231 230 227 220 211 203 200 198 196 193 191 191 192 190 186 182 178 177 177 178 182 185 184 181 179 178 177 176 175 175 176 177 178 179 179 179 178 177 176 176 177 178 179 178 178 179 179 179 180 182 184 188 191 193 193 191
282 281 280 280 279 278 277 276 277 278 280 280 281 282 281 276 269 261 255 252 252 253 253 251 249 247 244 241 237 234 231 230 229 224 216 208 203 200 198 196 193 191 191 190 187 185 183 184 184 184 183 182 180 179 178 180 180 176 172 171 175 179 180 179 179 179 179 177 176 175 175 177 177 177 177 178 178 178 179 180 182 186 189 189 187 184
289 286 285 284 282 280 278 277 278 280 281 282 284 284 283 279 272 263 253 248 249 250 250 249 247 244 242 240 237 234 231 230 228 225 219 212 206 202 200 199 196 192 189 188 188 187 187 186 186 185 184 182 180 178 179 182 181 177 173 174 177 179 180 180 180 179 179 178 177 176 176 176 176 177 178 179 180 181 181 181 181 183 187 189 187 182
293 292 291 290 288 286 284 283 283 283 283 284 282 281 279 278 274 266 254 246 245 247 248 244 240 237 235 234 233 231 229 229 227 225 221 215 209 204 202 201 198 194 189 188 188 189 189 188 186 184 183 181 179 178 180 183 182 181 179 178 175 174 176 180 181 181 179 178 178 177 175 175 177 178 178 179 180 181 182 182 182 183 185 187 186 184
290 290 291 291 290 289 288 287 285 284 283 281 278 275 274 275 273 269 259 248 243 243 244 240 236 232 229 227 227 227 226 226 226 224 220 216 211 206 203 202 199 196 191 187 187 189 190 189 187 185 184 180 178 177 178 180 182 184 184 180 173 167 169 180 183 183 181 179 178 177 176 176 176 177 177 178 178 179 180 181 183 184 185 186 185 185
287 288 288 288 287 286 284 282 279 277 274 272 270 269 268 269 271 271 266 255 245 240 239 236 233 231 227 225 222 220 220 221 221 220 218 215 211 207 204 202 201 198 194 189 187 188 187 188 188 186 184 180 178 177 177 178 181 183 184 181 177 175 177 180 181 181 180 180 179 178 177 176 176 175 175 176 176 177 178 180 182 184 186 186 185 184
286 287 287 287 287 286 283 280 278 276 271 267 265 263 262 262 264 267 269 264 253 243 235 229 227 226 227 224 218 212 211 212 212 211 211 211 209 206 204 202 201 199 196 194 191 188 185 185 185 184 181 180 179 179 178 179 180 182 184 183 183 183 182 179 178 179 179 179 179 178 177 176 174 172 172 173 174 176 177 179 181 183 185 185 185 184
285 286 287 286 286 286 286 287 288 287 283 278 272 266 262 258 257 259 263 265 262 251 237 226 221 222 227 224 214 205 202 202 202 203 204 204 204 204 203 203 202 200 197 196 195 193 191 188 185 180 175 176 178 181 182 181 180 181 182 183 183 182 181 179 179 180 180 179 178 177 176 174 171 170 170 172 174 176 178 179 180 181 183 184 184 184
286 286 286 286 286 286 286 286 287 287 286 285 283 279 273 265 258 254 255 258 260 257 246 230 221 221 225 222 213 204 201 198 196 197 199 201 201 201 200 201 202 202 199 198 197 196 195 192 187 181 175 174 177 181 184 183 181 181 181 181 181 180 178 179 181 182 181 179 177 175 173 171 170 170 170 171 172 175 178 180 182 183 183 183 184 185
285 286 286 286 287 286 284 283 281 280 279 281 284 287 287 282 273 262 255 252 252 252 249 238 227 222 223 221 215 210 206 202 197 195 196 198 199 200 200 200 200 200 199 198 197 196 195 193 189 185 181 178 178 180 181 182 182 182 181 180 180 179 179 180 182 182 181 180 177 175 173 171 171 170 169 168 169 173 177 180 181 182 183 184 184 184
283 284 284 285 285 284 282 280 277 275 274 275 278 282 286 289 286 280 271 258 249 245 244 239 232 226 223 220 216 212 208 204 200 197 195 195 196 196 197 197 196 195 193 193 194 193 193 192 191 190 189 186 183 181 179 180 182 182 181 180 180 180 180 180 180 181 181 180 178 176 174 175 174 172 168 165 166 170 174 178 180 182 183 184 184 185
282 282 283 283 282 282 281 281 279 277 275 274 275 278 281 283 285 285 283 276 264 252 244 239 234 229 225 222 217 212 207 203 200 198 197 195 193 192 192 191 188 184 182 182 182 182 182 184 188 191 193 192 189 184 179 178 179 179 179 180 181 181 179 178 179 180 180 179 177 176 176 176 175 172 169 166 166 168 171 175 179 181 183 184 185 186
281 281 281 280 279 280 281 283 285 286 287 286 285 283 282 281 280 280 281 279 275 266 256 248 240 232 227 223 218 212 207 204 200 198 197 193 190 188 188 185 181 176 173 172 171 168 167 170 179 188 194 194 193 189 184 179 176 175 177 180 182 181 179 177 177 178 179 178 177 176 176 175 174 172 170 168 167 167 169 174 178 181 182 183 184 186